TimeEDT,TemperatureF,Dew PointF,Humidity,Sea Level PressureIn,VisibilityMPH,Wind Direction,Wind SpeedMPH,Gust SpeedMPH,PrecipitationIn,Events,Conditions,WindDirDegrees,DateUTC
12:14 AM,37.4,35.6,93,29.62,7.0,NNW,11.5,19.6,N/A,,Overcast,330,2012-10-31 04:14:00
12:35 AM,37.4,35.6,93,29.62,7.0,NW,10.4,20.7,N/A,,Overcast,320,2012-10-31 04:35:00
12:54 AM,37.4,35.6,93,29.62,7.0,NNW,10.4,-,N/A,,Overcast,330,2012-10-31 04:54:00
1:14 AM,37.4,35.6,93,29.61,10.0,NNW,11.5,16.1,N/A,,Overcast,330,2012-10-31 05:14:00
1:35 AM,37.4,35.6,93,29.61,10.0,NW,11.5,-,N/A,,Overcast,320,2012-10-31 05:35:00
1:54 AM,37.4,35.6,93,29.61,10.0,NNW,10.4,18.4,N/A,,Overcast,340,2012-10-31 05:54:00
2:15 AM,37.4,35.6,93,29.61,10.0,NNW,10.4,19.6,N/A,,Overcast,330,2012-10-31 06:15:00
2:34 AM,37.4,35.6,93,29.61,10.0,NNW,12.7,18.4,N/A,,Overcast,330,2012-10-31 06:34:00
2:54 AM,37.4,35.6,93,29.61,10.0,NNW,10.4,18.4,N/A,,Overcast,340,2012-10-31 06:54:00
3:15 AM,37.4,33.8,87,29.61,10.0,NW,10.4,18.4,N/A,,Overcast,320,2012-10-31 07:15:00
3:34 AM,37.4,33.8,87,29.61,10.0,NNW,10.4,19.6,N/A,,Overcast,330,2012-10-31 07:34:00
3:55 AM,37.4,33.8,87,29.61,10.0,NNW,9.2,17.3,N/A,,Drizzle,330,2012-10-31 07:55:00
4:15 AM,37.4,33.8,87,29.61,7.0,NNW,12.7,-,N/A,Rain,Rain,330,2012-10-31 08:15:00
4:35 AM,37.4,33.8,87,29.61,10.0,NNW,11.5,17.3,N/A,,Overcast,330,2012-10-31 08:35:00
4:55 AM,37.4,33.8,87,29.61,7.0,NNW,10.4,16.1,N/A,Rain,Light Rain,340,2012-10-31 08:55:00
5:14 AM,37.4,33.8,87,29.62,10.0,NW,11.5,-,N/A,Rain,Rain,320,2012-10-31 09:14:00
5:35 AM,35.6,33.8,93,29.62,5.0,NW,9.2,-,N/A,Rain,Light Rain,320,2012-10-31 09:35:00
5:55 AM,35.6,33.8,93,29.63,5.0,NW,8.1,-,N/A,Rain,Rain,320,2012-10-31 09:55:00
6:14 AM,35.6,33.8,93,29.63,7.0,NW,10.4,-,N/A,Rain,Light Rain,310,2012-10-31 10:14:00
6:35 AM,35.6,33.8,93,29.64,7.0,NW,11.5,-,N/A,Rain,Light Rain,320,2012-10-31 10:35:00
6:55 AM,35.6,33.8,93,29.64,10.0,NW,9.2,18.4,N/A,,Overcast,320,2012-10-31 10:55:00
7:14 AM,35.6,33.8,93,29.64,7.0,NW,11.5,-,N/A,,Overcast,320,2012-10-31 11:14:00
7:35 AM,35.6,33.8,93,29.64,7.0,NW,10.4,16.1,N/A,Rain,Light Rain,310,2012-10-31 11:35:00
7:55 AM,35.6,35.6,100,29.64,7.0,NW,10.4,-,N/A,Rain,Light Rain,320,2012-10-31 11:55:00
8:14 AM,35.6,35.6,100,29.64,7.0,NW,10.4,-,N/A,Rain,Light Rain,320,2012-10-31 12:14:00
8:35 AM,35.6,35.6,100,29.65,10.0,NW,8.1,-,N/A,Rain,Rain,320,2012-10-31 12:35:00
8:54 AM,35.6,35.6,100,29.65,10.0,NW,11.5,16.1,N/A,Rain,Light Rain,320,2012-10-31 12:54:00
9:15 AM,37.4,35.6,93,29.65,7.0,NW,12.7,18.4,N/A,Snow,Snow,320,2012-10-31 13:15:00
9:35 AM,37.4,35.6,93,29.66,7.0,NW,12.7,18.4,N/A,Rain,Light Rain,320,2012-10-31 13:35:00
9:54 AM,37.4,35.6,93,29.65,10.0,NW,12.7,18.4,N/A,Rain,Light Rain,320,2012-10-31 13:54:00
10:15 AM,37.4,35.6,93,29.66,10.0,NW,12.7,18.4,N/A,,Overcast,320,2012-10-31 14:15:00
10:34 AM,37.4,35.6,93,29.66,10.0,NNW,10.4,19.6,N/A,,Drizzle,330,2012-10-31 14:34:00
10:55 AM,37.4,35.6,93,-9999,10.0,NNW,12.7,18.4,N/A,,Overcast,330,2012-10-31 14:55:00
11:14 AM,39.2,35.6,87,29.66,10.0,NW,11.5,20.7,N/A,Rain,Light Rain,320,2012-10-31 15:14:00
11:35 AM,39.2,35.6,87,29.66,10.0,NNW,15.0,21.9,N/A,,Overcast,330,2012-10-31 15:35:00
11:55 AM,39.2,35.6,87,29.67,10.0,NW,13.8,21.9,N/A,,Overcast,310,2012-10-31 15:55:00
12:20 PM,39.2,35.6,87,29.67,10.0,NW,9.2,-,N/A,,Overcast,310,2012-10-31 16:20:00
12:35 PM,41.0,37.4,87,29.66,10.0,NW,12.7,20.7,N/A,,Overcast,320,2012-10-31 16:35:00
12:55 PM,42.8,35.6,76,29.66,10.0,NNW,10.4,18.4,N/A,,Overcast,330,2012-10-31 16:55:00
1:15 PM,42.8,35.6,76,29.66,10.0,NNW,15.0,25.3,N/A,,Overcast,330,2012-10-31 17:15:00
1:35 PM,42.8,35.6,76,29.66,10.0,NNW,12.7,19.6,N/A,,Overcast,330,2012-10-31 17:35:00
1:54 PM,42.8,35.6,76,29.66,10.0,NW,16.1,23.0,N/A,,Overcast,320,2012-10-31 17:54:00
2:20 PM,42.8,35.6,76,29.66,10.0,NW,15.0,24.2,N/A,,Overcast,320,2012-10-31 18:20:00
2:34 PM,42.8,35.6,76,29.66,10.0,NW,18.4,25.3,N/A,,Overcast,310,2012-10-31 18:34:00
3:14 PM,42.8,35.6,76,29.66,10.0,NW,12.7,24.2,N/A,,Overcast,310,2012-10-31 19:14:00
3:35 PM,42.8,35.6,76,29.67,10.0,NW,12.7,21.9,N/A,,Overcast,320,2012-10-31 19:35:00
3:54 PM,42.8,35.6,76,29.67,10.0,NW,16.1,26.5,N/A,,Overcast,320,2012-10-31 19:54:00
4:14 PM,42.8,35.6,76,29.68,10.0,NW,17.3,24.2,N/A,,Overcast,310,2012-10-31 20:14:00
4:35 PM,41.0,35.6,81,29.68,7.0,NW,12.7,23.0,N/A,,Overcast,310,2012-10-31 20:35:00
4:54 PM,41.0,35.6,81,29.69,10.0,NW,16.1,28.8,N/A,,Overcast,320,2012-10-31 20:54:00
5:15 PM,39.2,35.6,87,29.69,10.0,NW,16.1,25.3,N/A,,Overcast,320,2012-10-31 21:15:00
5:34 PM,39.2,35.6,87,29.69,7.0,NW,13.8,21.9,N/A,,Overcast,320,2012-10-31 21:34:00
5:55 PM,39.2,35.6,87,29.70,10.0,NW,15.0,25.3,N/A,,Overcast,320,2012-10-31 21:55:00
6:14 PM,39.2,35.6,87,29.71,5.0,NW,13.8,20.7,N/A,,Overcast,320,2012-10-31 22:14:00
6:35 PM,39.2,35.6,87,29.71,10.0,NW,13.8,24.2,N/A,,Light Drizzle,320,2012-10-31 22:35:00
6:55 PM,39.2,35.6,87,29.72,10.0,NW,10.4,-,N/A,,Drizzle,320,2012-10-31 22:55:00
7:14 PM,39.2,35.6,87,29.72,10.0,NW,12.7,21.9,N/A,,Overcast,310,2012-10-31 23:14:00
7:35 PM,39.2,35.6,87,29.73,10.0,NW,15.0,25.3,N/A,,Overcast,320,2012-10-31 23:35:00
7:54 PM,39.2,35.6,87,29.73,10.0,NW,13.8,-,N/A,,Overcast,320,2012-10-31 23:54:00
8:15 PM,39.2,35.6,87,29.73,10.0,NW,15.0,21.9,N/A,,Overcast,320,2012-11-01 00:15:00
8:35 PM,39.2,35.6,87,29.74,10.0,NW,10.4,16.1,N/A,,Overcast,320,2012-11-01 00:35:00
8:54 PM,39.2,35.6,87,29.74,10.0,NW,10.4,-,N/A,,Overcast,320,2012-11-01 00:54:00
9:15 PM,39.2,35.6,87,29.75,10.0,NW,11.5,18.4,N/A,,Overcast,310,2012-11-01 01:15:00
9:35 PM,39.2,35.6,87,29.75,10.0,NW,10.4,17.3,N/A,,Overcast,310,2012-11-01 01:35:00
9:54 PM,39.2,35.6,87,29.75,10.0,NW,11.5,18.4,N/A,,Overcast,310,2012-11-01 01:54:00
10:15 PM,39.2,35.6,87,29.75,10.0,NW,8.1,-,N/A,,Overcast,310,2012-11-01 02:15:00
10:34 PM,39.2,37.4,93,29.75,10.0,WNW,9.2,-,N/A,,Overcast,300,2012-11-01 02:34:00
10:55 PM,39.2,37.4,93,29.75,10.0,WNW,11.5,17.3,N/A,,Overcast,300,2012-11-01 02:55:00
11:15 PM,39.2,37.4,93,29.75,10.0,NW,9.2,18.4,N/A,,Overcast,310,2012-11-01 03:15:00
11:34 PM,39.2,37.4,93,29.75,10.0,NW,9.2,-,N/A,,Overcast,310,2012-11-01 03:34:00